Theta_e
341 339 338 339 339 340 341 342 340 339 336 334 333 334 336 341 344 346 347 347 349 349 349 348 348 348 348 349 349 349 349 349 349 348 349 349 348 348 348 347 347 347 347
337 336 334 333 333 336 337 338 337 336 333 333 336 337 338 340 345 347 346 345 348 348 345 349 349 349 348 348 349 349 349 349 349 348 348 348 348 349 350 349 349 347 346
329 331 331 332 334 335 335 336 338 335 334 333 335 336 337 338 339 342 343 343 344 347 348 347 349 350 349 349 349 349 349 349 349 349 349 348 349 350 349 349 349 348 345
327 328 330 329 329 326 328 333 338 335 334 335 335 337 337 337 338 339 341 343 343 345 347 347 348 350 350 350 350 350 349 350 351 350 349 349 347 349 349 348 349 349 347
329 330 329 327 326 326 330 336 337 335 335 336 336 335 335 335 337 339 340 343 344 344 344 344 344 347 350 350 350 350 351 351 352 351 349 348 347 346 347 347 348 349 348
331 330 328 326 326 328 330 336 336 335 336 332 331 331 332 333 335 335 337 341 342 343 343 343 343 345 346 347 350 351 350 351 350 349 348 348 348 348 348 347 348 348 350
331 329 326 326 327 331 333 334 335 334 331 328 329 330 329 328 330 332 333 336 340 341 340 342 342 344 344 346 347 348 351 352 352 351 349 348 349 349 349 347 347 348 349
330 328 326 327 329 332 333 334 334 331 328 327 328 329 330 331 333 333 333 336 338 340 338 338 340 344 345 344 345 346 346 347 348 349 344 345 346 345 345 346 345 347 347
330 328 327 329 330 332 333 333 330 328 325 325 327 329 331 331 332 334 334 334 334 337 338 337 341 342 343 344 345 344 344 342 343 343 343 344 344 341 339 345 347 345 347
329 327 328 331 331 332 331 328 324 324 325 326 327 329 331 331 331 333 335 334 332 334 335 337 339 341 341 342 345 342 340 340 339 339 339 338 339 340 343 346 348 346 345
327 328 330 331 330 328 326 325 325 324 325 327 328 328 330 325 330 330 331 331 331 331 336 337 339 341 341 342 343 342 341 341 340 340 340 340 340 340 340 342 348 348 346
328 330 330 328 326 325 325 325 325 324 325 326 326 326 328 324 327 329 325 324 327 330 331 333 337 339 340 340 341 342 341 341 340 338 339 340 341 343 343 343 345 348 348
329 329 328 326 325 324 323 323 323 324 325 326 324 325 325 327 326 321 322 322 326 327 330 332 334 335 337 339 340 341 340 338 336 335 338 339 338 339 344 346 344 346 348
328 328 327 326 324 324 323 323 324 324 325 325 325 324 324 324 323 320 321 329 331 329 325 329 333 335 338 339 338 340 339 335 332 333 337 338 339 339 342 344 345 345 343
325 326 326 325 323 322 323 323 323 322 325 325 325 325 322 322 323 321 322 328 327 330 331 330 332 334 336 336 336 337 337 334 335 336 337 337 337 336 341 342 342 340 341
323 324 324 324 323 322 323 323 323 324 324 326 326 325 324 324 322 322 324 324 324 330 330 331 334 334 335 336 335 336 337 338 338 340 340 339 335 336 339 337 340 339 337
324 324 324 324 323 323 324 323 324 323 324 325 325 325 325 324 323 322 324 323 328 330 332 331 331 331 331 333 334 335 335 337 338 339 339 337 337 335 337 336 336 336 335
323 322 323 321 320 323 324 324 324 324 325 325 324 323 325 324 325 321 321 326 328 329 330 329 330 330 331 331 332 333 334 335 336 337 337 337 337 336 336 335 334 334 332
323 323 322 323 323 323 324 324 325 325 325 324 323 324 325 325 325 323 325 326 326 327 326 327 328 328 329 330 331 332 332 333 334 335 334 334 335 335 333 334 334 333 332
321 321 320 321 321 322 323 324 324 324 324 323 322 325 324 323 323 323 326 327 328 326 325 325 325 325 326 327 327 329 329 331 331 332 333 333 333 333 333 332 332 331 330
320 319 318 320 321 320 321 324 323 323 323 322 323 327 327 324 323 323 325 326 327 326 325 326 326 325 326 326 326 327 327 327 328 328 329 330 330 331 330 329 328 328 329
317 317 315 316 318 319 320 320 321 320 319 320 322 326 325 325 324 324 324 325 326 327 326 325 327 327 326 326 327 327 327 327 328 327 327 328 327 327 325 323 324 325 324
315 314 313 312 313 314 315 316 316 316 315 314 315 316 318 320 320 321 322 322 324 326 325 325 325 326 326 326 326 326 326 326 326 324 324 324 323 323 323 323 323 323 322
310 310 310 310 310 310 310 311 311 313 311 310 309 308 308 310 312 315 318 321 323 323 323 324 324 324 325 325 326 326 327 326 325 325 325 324 324 324 325 325 325 324 323
305 305 305 305 306 306 307 308 308 307 306 306 306 305 304 305 307 310 310 311 313 314 315 318 319 320 322 323 325 325 324 324 326 323 324 326 324 322 322 323 323 323 323
300 301 302 303 303 304 304 305 306 306 303 301 302 301 303 301 301 302 307 309 309 308 308 310 313 314 317 317 317 319 321 323 324 324 322 324 324 322 319 318 319 319 320
Wind_Speed
4 7 13 15 17 20 22 23 21 22 23 26 29 31 31 32 31 26 24 23 23 26 28 31 35 34 34 29 32 30 29 27 17 25 26 29 33 32 26 17 16 17 17
7 12 16 19 20 23 26 28 27 28 31 31 28 29 31 30 29 28 28 26 26 27 27 32 35 27 27 26 26 29 30 29 25 22 22 25 29 31 26 17 13 12 11
9 12 17 22 24 27 31 32 31 29 30 32 32 31 32 31 31 30 31 30 31 31 32 31 36 30 30 27 30 30 31 30 30 25 24 23 29 24 21 17 13 10 13
11 16 19 23 27 33 36 35 30 29 30 31 32 30 31 31 30 30 30 31 33 31 32 33 36 33 35 34 34 34 31 28 28 26 24 22 24 24 21 18 12 11 12
16 19 24 28 34 35 35 33 30 31 29 29 29 32 32 32 31 29 30 29 30 30 30 31 34 38 40 40 34 34 31 28 27 24 21 19 20 15 16 13 8 7 9
18 23 27 33 36 36 33 31 30 30 26 27 29 31 33 33 32 31 30 31 30 29 28 28 32 36 40 44 44 43 35 29 27 25 22 20 23 23 23 21 9 4 1
21 26 32 34 34 34 32 28 25 25 27 28 28 29 32 33 34 34 33 33 31 30 30 29 29 32 34 35 36 42 47 46 44 33 28 27 23 23 24 19 17 10 11
24 28 33 34 33 31 29 25 23 26 26 26 28 29 31 32 30 32 32 32 31 30 31 30 30 31 32 34 34 31 38 41 42 42 34 35 34 25 24 23 23 17 12
28 31 33 32 30 29 24 24 25 24 26 26 28 27 26 27 27 25 25 28 28 29 30 31 31 32 32 34 34 30 32 36 40 47 44 45 46 39 29 26 19 12 7
29 32 32 28 26 23 22 25 25 24 25 30 30 25 22 23 24 25 25 22 21 24 26 30 31 33 33 32 35 33 27 32 31 30 38 40 38 34 27 31 26 20 9
27 27 25 22 23 24 23 25 25 23 25 29 26 24 21 20 23 24 28 15 17 19 21 24 26 29 26 29 36 34 37 29 28 31 29 31 36 36 37 34 36 33 23
23 21 22 22 21 23 22 24 23 22 23 25 22 22 20 19 24 22 21 20 20 21 24 25 25 26 26 26 27 37 38 35 25 24 24 26 27 28 32 34 33 39 37
21 21 22 22 25 25 22 23 24 23 21 20 17 19 21 21 26 21 19 19 22 23 26 25 23 25 24 23 27 31 32 35 27 22 25 27 26 29 26 28 26 30 34
22 23 24 24 24 26 25 23 21 20 20 14 15 18 26 26 24 21 21 20 24 25 19 19 17 17 19 20 22 23 28 29 28 25 25 23 22 29 28 27 24 24 21
23 24 22 19 20 22 21 20 21 21 18 20 24 24 20 23 23 20 19 20 23 24 28 13 11 10 11 12 9 14 21 19 20 22 27 26 26 26 25 26 20 24 18
17 18 20 18 19 21 21 22 21 16 20 17 25 28 25 19 18 16 14 17 19 11 14 15 10 6 10 9 3 3 4 12 16 18 19 20 20 21 14 25 24 23 18
16 15 15 19 19 20 19 15 16 24 17 15 24 21 18 16 14 15 15 18 11 7 9 11 11 13 14 4 6 5 4 5 3 4 10 18 20 17 14 2 7 13 14
20 17 15 17 22 22 19 17 17 16 16 23 22 24 13 13 12 14 16 15 11 12 9 11 13 14 14 13 11 9 8 9 9 7 4 8 9 14 18 17 13 14 13
20 20 23 22 22 22 21 20 18 20 19 22 28 23 11 8 8 10 10 12 9 11 13 10 8 9 11 13 15 14 15 13 13 14 13 11 12 12 14 16 15 15 17
23 22 23 21 20 18 15 16 14 14 17 19 21 19 8 4 3 5 7 7 8 9 9 9 7 6 5 8 11 11 13 17 18 17 17 16 13 12 13 12 12 14 14
22 22 21 18 18 20 12 15 9 15 19 17 16 16 8 7 6 6 9 10 7 7 6 8 10 11 11 9 8 9 11 12 13 14 15 16 15 17 16 16 16 17 17
21 21 18 16 18 20 18 12 7 10 14 19 17 14 9 7 8 8 7 7 9 2 4 5 5 8 9 10 10 11 12 12 12 13 13 15 15 14 14 14 14 14 14
21 20 21 21 20 19 22 22 19 14 12 14 19 20 19 14 12 12 10 7 7 4 5 5 6 3 4 4 4 5 7 8 8 10 12 13 12 13 12 10 10 9 9
22 22 22 18 22 23 21 21 20 15 11 15 26 25 21 17 18 19 19 15 11 8 8 6 6 6 5 4 4 4 4 3 2 2 9 11 11 10 9 7 6 6 7
26 26 24 24 22 21 20 20 22 21 20 24 31 26 22 21 22 23 22 19 18 17 16 15 12 11 9 3 3 5 7 4 5 4 3 8 8 8 8 8 8 9 10
26 23 22 26 24 23 22 21 21 22 23 26 26 19 28 26 23 26 26 23 21 20 20 20 17 15 14 12 8 6 3 2 3 6 4 6 9 7 6 6 7 7 7
Wind_Direction
273 286 280 282 287 287 286 286 288 289 293 295 293 291 288 283 277 266 261 261 257 259 262 250 246 248 244 238 241 238 235 230 242 259 258 268 275 278 284 281 290 291 277
270 269 279 291 295 291 290 289 289 291 298 302 298 291 289 284 277 267 264 260 252 249 256 256 256 246 248 239 229 232 233 233 233 252 255 258 266 275 283 284 296 302 269
267 283 296 299 298 293 292 290 286 288 291 294 294 292 291 288 282 272 268 265 261 252 251 251 256 257 253 242 239 240 237 232 233 238 252 252 262 268 271 272 280 285 270
299 303 301 300 299 300 299 297 285 289 291 288 289 291 291 291 286 279 269 261 260 254 249 249 252 246 241 238 236 237 236 230 230 232 241 243 250 256 258 265 264 260 272
288 295 299 303 303 303 297 294 290 294 288 287 289 290 290 291 287 281 274 261 257 257 254 255 252 248 245 242 238 237 234 233 228 225 235 242 237 229 220 241 217 254 267
285 292 302 308 310 308 301 292 292 291 287 291 292 292 293 290 287 287 281 266 260 256 256 255 255 252 252 249 248 243 239 231 230 224 229 234 238 224 226 229 234 171 221
286 299 308 312 311 307 303 295 286 284 289 292 294 295 295 294 293 291 288 277 261 259 258 257 257 254 251 249 251 251 247 240 238 232 222 232 241 221 220 223 225 202 207
288 303 311 313 309 304 300 288 283 289 291 294 300 299 300 301 303 297 294 282 268 262 257 256 257 257 248 252 247 242 247 243 234 225 235 245 246 242 247 255 261 238 219
297 310 314 311 305 301 293 287 294 296 296 296 302 300 302 303 311 309 299 287 274 265 262 261 253 258 261 258 244 233 237 238 239 238 238 242 249 253 257 252 227 206 201
305 313 313 312 309 298 294 295 297 298 297 302 300 299 295 306 321 321 301 284 280 270 264 262 257 257 260 256 244 232 227 232 230 231 240 241 244 245 241 236 224 210 192
310 309 308 308 306 301 301 300 299 303 302 307 303 306 295 308 320 317 310 309 300 293 276 265 258 262 265 257 246 233 231 234 228 223 225 232 240 240 240 230 228 220 207
306 304 306 308 310 307 309 304 303 305 308 305 314 311 313 316 319 306 307 315 304 298 290 283 268 266 268 260 254 248 246 240 227 222 221 223 225 221 222 230 228 229 236
304 305 307 308 310 307 307 304 302 301 303 295 314 321 310 322 320 326 312 314 318 301 285 284 277 262 268 261 258 257 250 238 229 230 238 238 229 230 226 220 224 235 232
299 301 302 307 310 308 309 304 298 293 293 287 317 320 316 315 319 331 330 336 335 336 308 291 279 270 271 266 276 247 237 233 227 228 233 230 231 229 218 212 200 198 200
301 295 298 302 309 318 316 309 301 291 291 305 314 304 291 300 319 323 326 331 335 349 337 305 279 269 268 260 253 243 232 221 215 224 231 225 217 211 202 196 190 180 189
303 301 304 304 305 314 315 315 316 300 309 293 303 299 285 284 308 316 320 330 331 334 353 12 353 305 256 238 213 154 176 210 231 230 237 201 207 215 201 175 165 171 135
327 320 329 323 311 306 297 306 310 320 325 298 320 314 280 282 301 309 322 337 358 348 353 9 20 8 1 43 85 95 82 71 97 196 189 211 209 199 207 217 168 144 178
323 315 307 309 307 302 294 298 304 314 312 303 317 320 293 264 289 310 324 339 8 15 5 2 27 19 11 30 38 56 67 77 79 90 121 148 138 125 126 142 146 149 147
336 324 315 304 308 304 299 293 302 316 316 306 312 321 308 267 280 310 333 346 6 12 6 12 25 11 21 36 49 63 67 67 69 75 76 96 113 122 118 136 141 143 142
334 329 324 323 321 313 300 282 300 306 300 304 313 317 301 283 292 338 358 15 24 31 34 27 11 6 21 41 52 52 65 71 75 74 75 77 86 107 114 121 128 129 128
334 334 338 336 352 338 299 284 319 315 307 318 333 352 308 293 342 350 2 7 3 14 36 50 53 47 50 53 68 75 78 79 80 83 87 92 96 100 107 109 115 124 127
356 349 353 354 14 8 11 24 352 343 359 358 354 358 7 20 356 352 357 9 358 344 24 31 42 61 64 73 89 93 88 90 93 91 90 99 105 108 109 107 109 118 125
10 5 12 14 19 21 23 20 18 11 22 41 33 20 16 25 29 22 2 350 8 53 0 5 357 34 65 58 72 89 93 97 104 108 114 114 114 117 122 120 124 129 134
27 21 19 15 21 29 23 23 15 12 17 39 52 27 14 10 26 33 37 48 59 54 53 44 19 341 330 346 341 349 332 330 3 188 170 157 149 153 160 171 182 184 179
38 34 26 20 17 17 24 24 25 17 24 41 44 32 16 22 33 39 39 48 52 49 50 51 47 37 27 9 326 334 344 299 200 221 207 200 188 178 183 190 198 200 204
33 31 29 34 22 17 23 19 27 25 31 34 47 34 44 26 27 34 41 40 47 48 47 45 49 47 46 44 35 5 339 278 224 212 220 219 217 219 209 213 217 225 227